When you browse on this site, cookies collect data to enhance your experience and personalize the content and advertising you see.
Visit our Privacy Policy to learn more. By continuing to use the site, you agree to this use of cookies and data.
  • Em Portugal
  • Lista de países
  • Para 7 dias
  • Temperatura da água
  • Mapas de satélite
  • Mapa do tempo
  • Widgets de tempo
  • user-avatar
    Iniciar Sessão

    Previsão horária em Charzowice

    Hoje, 20 Junho, Quinta-feira

    Tempo Temperatura Precipitação Vento Pressão Humidade
    00:00 +21°C° 0 mm 1 m/s 739 mmHg 78%
    01:00 +20°C° 0 mm 1 m/s 739 mmHg 81%
    02:00 +20°C° 0 mm 1 m/s 739 mmHg 82%
    03:00 +20°C° 0 mm 1 m/s 739 mmHg 83%
    04:00 +19°C° 0 mm 1 m/s 739 mmHg 84%
    05:00 +21°C° 0 mm 1 m/s 739 mmHg 79%
    06:00 +22°C° 0 mm 1 m/s 739 mmHg 75%
    07:00 +24°C° 0 mm 1 m/s 739 mmHg 71%
    08:00 +25°C° 0 mm 1 m/s 739 mmHg 66%
    09:00 +27°C° 0 mm 1 m/s 739 mmHg 62%
    10:00 +28°C° 0 mm 1 m/s 739 mmHg 58%
    11:00 +29°C° 0 mm 1 m/s 739 mmHg 55%
    12:00 +29°C° 0 mm 1 m/s 739 mmHg 53%
    13:00 +30°C° 0 mm 1 m/s 739 mmHg 50%
    14:00 +29°C° 0 mm 1 m/s 739 mmHg 54%
    15:00 +29°C° 0 mm 1 m/s 739 mmHg 57%
    16:00 +29°C° 0 mm 1 m/s 738 mmHg 60%
    17:00 +27°C° 0.2 mm 2 m/s 738 mmHg 66%
    18:00 +25°C° 0.2 mm 2 m/s 738 mmHg 72%
    19:00 +24°C° 0.2 mm 2 m/s 738 mmHg 79%
    20:00 +23°C° 0.5 mm 2 m/s 738 mmHg 80%
    21:00 +22°C° 0.5 mm 1 m/s 739 mmHg 81%
    22:00 +21°C° 0.5 mm 1 m/s 739 mmHg 82%
    23:00 +20°C° 0 mm 1 m/s 739 mmHg 82%

    Amanhã, 21 Junho, Sexta-feira

    Tempo Temperatura Precipitação Vento Pressão Humidade
    00:00 +20°C° 0 mm 1 m/s 739 mmHg 82%
    01:00 +20°C° 0 mm 1 m/s 739 mmHg 83%
    02:00 +19°C° 0 mm 1 m/s 739 mmHg 85%
    03:00 +19°C° 0 mm 1 m/s 739 mmHg 87%
    04:00 +19°C° 0 mm 1 m/s 739 mmHg 89%
    05:00 +19°C° 0.2 mm 2 m/s 740 mmHg 87%
    06:00 +20°C° 0.2 mm 2 m/s 740 mmHg 86%
    07:00 +22°C° 0.2 mm 3 m/s 740 mmHg 85%
    08:00 +24°C° 0.1 mm 2 m/s 740 mmHg 80%
    09:00 +25°C° 0.1 mm 2 m/s 740 mmHg 76%
    10:00 +26°C° 0.1 mm 2 m/s 741 mmHg 71%
    11:00 +26°C° 1.8 mm 3 m/s 740 mmHg 70%
    12:00 +27°C° 1.8 mm 3 m/s 740 mmHg 70%
    13:00 +27°C° 1.8 mm 3 m/s 740 mmHg 69%
    14:00 +27°C° 1.4 mm 3 m/s 740 mmHg 71%
    15:00 +26°C° 1.4 mm 3 m/s 740 mmHg 74%
    16:00 +26°C° 1.4 mm 3 m/s 741 mmHg 77%
    17:00 +24°C° 0.4 mm 3 m/s 741 mmHg 81%
    18:00 +22°C° 0.4 mm 3 m/s 741 mmHg 85%
    19:00 +21°C° 0.4 mm 3 m/s 741 mmHg 89%
    20:00 +20°C° 0 mm 2 m/s 741 mmHg 89%
    21:00 +20°C° 0 mm 2 m/s 741 mmHg 89%
    22:00 +21°C° 0 mm 1 m/s 742 mmHg 89%
    23:00 +20°C° 0.1 mm 1 m/s 742 mmHg 89%

    Depois de amanhã, 22 Junho, Sábado

    Tempo Temperatura Precipitação Vento Pressão Humidade
    00:00 +19°C° 0.1 mm 2 m/s 742 mmHg 90%
    01:00 +19°C° 0.1 mm 2 m/s 742 mmHg 91%
    02:00 +19°C° 0 mm 2 m/s 742 mmHg 93%
    03:00 +18°C° 0 mm 2 m/s 742 mmHg 94%
    04:00 +18°C° 0 mm 3 m/s 743 mmHg 95%
    05:00 +19°C° 0.1 mm 3 m/s 743 mmHg 94%
    06:00 +20°C° 0.1 mm 3 m/s 743 mmHg 92%
    07:00 +20°C° 0.1 mm 3 m/s 744 mmHg 90%
    08:00 +21°C° 0.1 mm 4 m/s 744 mmHg 85%
    09:00 +22°C° 0.1 mm 4 m/s 744 mmHg 81%
    10:00 +23°C° 0.1 mm 4 m/s 744 mmHg 76%
    11:00 +23°C° 0.4 mm 4 m/s 744 mmHg 73%
    12:00 +25°C° 0.4 mm 5 m/s 744 mmHg 70%
    13:00 +26°C° 0.4 mm 5 m/s 744 mmHg 68%
    14:00 +26°C° 0.2 mm 5 m/s 743 mmHg 69%
    15:00 +25°C° 0.2 mm 5 m/s 743 mmHg 70%
    16:00 +25°C° 0.2 mm 5 m/s 743 mmHg 71%
    17:00 +23°C° 0.1 mm 4 m/s 743 mmHg 74%
    18:00 +22°C° 0.1 mm 4 m/s 743 mmHg 78%
    19:00 +21°C° 0.1 mm 4 m/s 743 mmHg 82%
    20:00 +20°C° 0 mm 4 m/s 743 mmHg 82%
    21:00 +19°C° 0 mm 4 m/s 743 mmHg 83%
    22:00 +18°C° 0 mm 4 m/s 743 mmHg 83%
    23:00 +18°C° 0 mm 4 m/s 743 mmHg 84%

    23 Junho, Domingo

    Tempo Temperatura Precipitação Vento Pressão Humidade
    00:00 +18°C° 0 mm 4 m/s 743 mmHg 84%
    01:00 +17°C° 0 mm 4 m/s 743 mmHg 85%
    02:00 +17°C° 0.2 mm 4 m/s 743 mmHg 87%
    03:00 +15°C° 0.2 mm 4 m/s 743 mmHg 89%
    04:00 +16°C° 0.2 mm 3 m/s 743 mmHg 91%
    05:00 +16°C° 0.3 mm 3 m/s 743 mmHg 90%
    06:00 +15°C° 0.3 mm 4 m/s 743 mmHg 90%
    07:00 +17°C° 0.3 mm 4 m/s 744 mmHg 89%
    08:00 +17°C° 0.2 mm 4 m/s 744 mmHg 88%
    09:00 +18°C° 0.2 mm 3 m/s 744 mmHg 88%
    10:00 +18°C° 0.2 mm 3 m/s 744 mmHg 87%
    11:00 +19°C° 0.1 mm 3 m/s 744 mmHg 85%
    12:00 +20°C° 0.1 mm 3 m/s 744 mmHg 82%
    13:00 +21°C° 0.1 mm 4 m/s 744 mmHg 79%
    14:00 +21°C° 0.1 mm 4 m/s 744 mmHg 80%
    15:00 +21°C° 0.1 mm 4 m/s 744 mmHg 81%
    16:00 +21°C° 0.1 mm 3 m/s 744 mmHg 82%
    17:00 +21°C° 0.1 mm 3 m/s 744 mmHg 84%
    18:00 +20°C° 0.1 mm 3 m/s 745 mmHg 86%
    19:00 +19°C° 0.1 mm 2 m/s 745 mmHg 88%
    20:00 +19°C° 0 mm 2 m/s 745 mmHg 89%
    21:00 +18°C° 0 mm 2 m/s 745 mmHg 91%
    22:00 +18°C° 0 mm 2 m/s 745 mmHg 92%
    23:00 +18°C° 0.1 mm 2 m/s 745 mmHg 93%

    24 Junho, Segunda-feira

    Tempo Temperatura Precipitação Vento Pressão Humidade
    00:00 +17°C° 0.1 mm 3 m/s 745 mmHg 94%
    01:00 +17°C° 0.1 mm 3 m/s 745 mmHg 95%
    02:00 +17°C° 0.5 mm 3 m/s 745 mmHg 95%
    03:00 +17°C° 0.5 mm 3 m/s 745 mmHg 95%
    04:00 +17°C° 0.5 mm 3 m/s 745 mmHg 95%
    05:00 +18°C° 0.1 mm 3 m/s 745 mmHg 95%
    06:00 +18°C° 0.1 mm 3 m/s 746 mmHg 95%
    07:00 +18°C° 0.1 mm 4 m/s 746 mmHg 95%
    08:00 +18°C° 0 mm 4 m/s 746 mmHg 93%
    09:00 +19°C° 0 mm 4 m/s 746 mmHg 92%
    10:00 +19°C° 0 mm 4 m/s 747 mmHg 91%
    11:00 +20°C° 0.1 mm 4 m/s 747 mmHg 90%
    12:00 +20°C° 0.1 mm 4 m/s 747 mmHg 90%
    13:00 +20°C° 0.1 mm 4 m/s 747 mmHg 90%
    14:00 +20°C° 0 mm 4 m/s 747 mmHg 88%
    15:00 +21°C° 0 mm 3 m/s 747 mmHg 86%
    16:00 +22°C° 0 mm 3 m/s 747 mmHg 84%
    17:00 +21°C° 0 mm 3 m/s 747 mmHg 85%
    18:00 +21°C° 0 mm 3 m/s 747 mmHg 86%
    19:00 +21°C° 0 mm 2 m/s 747 mmHg 87%
    20:00 +20°C° 0 mm 2 m/s 747 mmHg 89%
    21:00 +19°C° 0 mm 2 m/s 748 mmHg 92%
    22:00 +18°C° 0 mm 2 m/s 748 mmHg 95%
    23:00 +17°C° 0 mm 2 m/s 748 mmHg 95%

    25 Junho, Terça-feira

    Tempo Temperatura Precipitação Vento Pressão Humidade
    00:00 +17°C° 0 mm 2 m/s 748 mmHg 96%
    01:00 +17°C° 0 mm 2 m/s 748 mmHg 96%
    02:00 +17°C° 0 mm 2 m/s 748 mmHg 96%
    03:00 +16°C° 0 mm 2 m/s 748 mmHg 97%
    04:00 +16°C° 0 mm 2 m/s 747 mmHg 97%
    05:00 +18°C° 0 mm 2 m/s 748 mmHg 94%
    06:00 +20°C° 0 mm 1 m/s 748 mmHg 91%
    07:00 +21°C° 0 mm 1 m/s 748 mmHg 87%
    08:00 +21°C° 0 mm 2 m/s 748 mmHg 85%
    09:00 +24°C° 0 mm 2 m/s 748 mmHg 82%
    10:00 +25°C° 0 mm 2 m/s 748 mmHg 79%
    11:00 +25°C° 0.1 mm 2 m/s 748 mmHg 76%
    12:00 +26°C° 0.1 mm 2 m/s 748 mmHg 74%
    13:00 +27°C° 0.1 mm 2 m/s 748 mmHg 72%
    14:00 +27°C° 0.1 mm 2 m/s 748 mmHg 71%
    15:00 +27°C° 0.1 mm 2 m/s 747 mmHg 70%
    16:00 +28°C° 0.1 mm 2 m/s 747 mmHg 69%
    17:00 +27°C° 0 mm 2 m/s 747 mmHg 74%
    18:00 +26°C° 0 mm 2 m/s 747 mmHg 78%
    19:00 +25°C° 0 mm 2 m/s 747 mmHg 83%
    20:00 +23°C° 0 mm 2 m/s 748 mmHg 86%
    21:00 +21°C° 0 mm 2 m/s 748 mmHg 89%
    22:00 +20°C° 0 mm 2 m/s 748 mmHg 92%
    23:00 +20°C° 0 mm 2 m/s 748 mmHg 92%
    Mostrar mais